STARLINK-3937 (52542 NORAD) Tracking and Keplerian Element Data

This shows tracking and keplerian element data for the satellite.

Feedback or suggestion? Click here.




ElementValue
Catalog52542
NameSTARLINK-3937
Epoch Orbit970
Epoch Day192.91667824
Epoch Year2022
RAAN10.1561
Inclination53.2175
Eccentricity0.0001552
Argument of Perigee56.1813
Mean Anonmoly71.6024
Mean Motion15.12810502
Decay Rate-0.00717914
L11 52542U 22051K 22192.91667824 -.00717914 00000+0 -43390-1 0 9997
L22 52542 53.2175 10.1561 0001552 56.1813 71.6024 15.12810502 9705

Live tracking and technical data element details for STARLINK-3937 (NORAD 52542). STARLINK-3937 can be tracked NOW for your location showing map with azimuth and elevation plus other details from your city location.

Track the satellite on the map from your city or location and see movement details for azimuth, elevation, latitude, longitude, range, height, and movement on the map or in text.







IsCatalogInMostPopularTable: catalog: 52542, numindb: 8
Update: records affected: 1



GetName: 52542 STARLINK-3937

Hit Count: updated at: Sun, 14 Aug 2022 01:39:41 GMT